Other Surface Observations
Issued by NWS Charleston, SC

Home | Current Version | Previous Version | Text Only | Print | Product List | Glossary On
Versions: 1 2 3 4 5 6 7 8 9 10 11 12 13 14 15 16 17 18 19 20 21 22 23 24 25 26 27 28 29 30 31 32 33 34 35 36 37 38 39 40 41 42 43 44 45 46 47 48 49 50
000
SXUS52 KCHS 250026
OSOCHS

MARINE OBSERVATIONS
NATIONAL WEATHER SERVICE CHARLESTON SC
800 PM EDT FRI APR 24 2015

...DOWNTOWN CHARLESTON AND HARBOR...

CITY           SKY/WX    TMP DP  RH WIND       PRES   REMARKS
WATERFRONT PRK   N/A     64 N/A N/A S7          N/A
FORT JOHNSON   NOT AVBL

...LAKE MOULTRIE...

CITY           SKY/WX    TMP DP  RH WIND       PRES   REMARKS
PINOPOLIS      NOT AVBL

...LAKE AND SUPPLEMENTAL COASTAL OBSERVATIONS...

STATION/POSITION TIME  TEMP    WIND        PRES    WAVE   SWELL
                       AIR SEA DIR/SP/G            HT/PER HT/PER/DIR
                 (UTC) (F)     (DEG/KT/KT) (MB)    (FT/S) (FT/S/D)
FORT PULASKI     0000   64 71  130/  4/  6 1017.3F
SAPELO ISLAND    0000   64     110/  1     1017.0S
UPR LAKE MARION  NOT AVBL
WINYAH BAY       2245   64     180/  7     1015.0
LAKE MURRAY      0000   66        CALM     1014.9F
ACE BASIN NERRS  NOT AVBL


...C-MAN AND BUOY OBSERVATIONS...

STATION/POSITION TIME  TEMP    WIND        PRES    WAVE   SWELL
                       AIR SEA DIR/SP/G            HT/PER HT/PER/DIR
                 (UTC) (F)     (DEG/KT/KT) (MB)    (FT/S) (FT/S/D)
BUOY 41004       2350   65 71  170/  6/  8 1016.8R   4/ 8   3/ 8
BUOY 41008       2350   66 69   90/ 10/ 10 1016.9F   4/ 8   3/ 70/ 8
FOLLY BEACH CMAN 0000   64     190/  7/  9 1017.0R
CAPERS NS BUOY   2308   64     180/  8/ 12   N/A
FRIPP NS BUOY    2300   66     160/  8/ 10 1016.8R
5E ST. MARYS GA  2321      69                N/A     4/ 6   2/110/15


STATION/POSITION TIME  TEMP    WIND        PRES    WAVE   SWELL
                       AIR SEA DIR/SP/G            HT/PER HT/PER/DIR
                 (UTC) (F)     (DEG/KT/KT) (MB)    (FT/S) (FT/S/D)
FRYING PAN BUOY  2350   63 71  200/  8/ 12 1016.7R   4/13   3/ 90/13
BUOY 41025       2350   58 73  180/  2/  4 1015.0S   5/ 8   5/ 50/ 8
CAPE LOOKOUT NC  0000   60     230/  5/  6 1014.6F
BUOY 41002       2350   63 71  360/ 10/ 14 1016.2R   7/ 7   7/350/ 7
BUOY 41010       2320   76 79   40/ 14/ 16 1015.2R
ST AUGUSTINE FL  0000   67 67  360/ 10/ 11 1017.0R

$$



USA.gov is the U.S. government's official web portal to all federal, state and local government web resources and services.